Regional Weather Roundup
Issued by NWS

Home | Current Version | Previous Version | Graphics & Text | Print | Product List | Glossary On
Versions: 1 2 3 4 5 6 7 8 9 10 11 12 13 14 15 16 17 18 19 20 21 22 23 24 25 26 27 28 29 30 31 32 33 34 35 36 37 38 39 40 41 42 43 44 45 46 47 48 49 50
000
ASUS43 KMPX 270101
RWRMN
WEATHER ROUNDUP FOR MINNESOTA
NATIONAL WEATHER SERVICE TWIN CITIES/CHANHASSEN MN
800 PM CDT THU MAY 26 2016


NOTE: "FAIR" INDICATES FEW OR NO CLOUDS BELOW 12,000 FEET WITH NO
SIGNIFICANT WEATHER AND/OR OBSTRUCTIONS TO VISIBILITY. N/A MEANS
CURRENT SKY AND/OR WEATHER CONDITIONS ARE NOT AVAILABLE.

MNZ060>063-068>070-270200-
   Twin Cities Metro

CITY           SKY/WX    TMP DP  RH WIND       PRES   REMARKS
TWIN CITIES    CLOUDY    78  49  35 SW3       29.83R
ST PAUL        CLOUDY    76  51  41 SW5       29.83R
CRYSTAL        CLOUDY    76  49  38 S5        29.83R
BLAINE         CLOUDY    77  48  36 SW6       29.84R
EDEN PRAIRIE   CLOUDY    77  50  38 CALM      29.83R
SOUTH ST PAUL  CLOUDY    76  51  42 SW3       29.84R
LAKE ELMO      FAIR      72  54  53 W7        29.85R
$$
MNZ001>005-007-008-013>017-022>024-027-028-270200-
   Northwest Minnesota

CITY           SKY/WX    TMP DP  RH WIND       PRES   REMARKS
BEMIDJI        CLEAR     68  51  55 W6        29.78R
HALLOCK        PTSUNNY   64  55  72 W12       29.70F
ROSEAU         CLEAR     68  57  68 W8G17     29.69F
WARROAD        CLEAR     66  57  72 W8        29.69F
THIEF RVR FALL CLEAR     66  54  63 W9        29.73R
CROOKSTON      CLEAR     70  55  60 NW12      29.73R
FOSSTON        CLEAR     70  52  52 SW6       29.77R
DETROIT LAKES  CLEAR     70  54  56 CALM      29.81R
MOORHEAD       CLEAR     73  54  49 N5        29.77R
PARK RAPIDS    CLEAR     70  50  49 NW6       29.81R
MAHNOMEN       FAIR      69  55  60 SW5       29.76R
$$
MNZ006-009>011-018-025>026-270200-
   North Central Minnesota

CITY           SKY/WX    TMP DP  RH WIND       PRES   REMARKS
BAUDETTE       CLEAR     69  52  54 W9        29.68F
FLAG ISLAND    MOCLDY    64  54  68 SW10      29.67F
INTL FALLS     CLEAR     70  52  52 W6        29.71F
WASKISH        CLEAR     66  57  72 SW8       29.75R
BIG FORK       CLEAR     72  52  49 SW6       29.77R
LONGVILLE      PTCLDY    72  48  43 SW7       29.79R
GRAND RAPIDS   CLEAR     70  52  52 S10       29.81R
CRANE LAKE     PTCLDY    63  61  94 CALM      29.76R
ORR            MOCLDY    70  54  56 CALM      29.74R
COOK           CLOUDY    72  55  56 CALM      29.77R
WALKER           N/A     68  49  51 W6        29.81
$$
MNZ012-019>021-037-270200-
   Northeast Minnesota

CITY           SKY/WX    TMP DP  RH WIND       PRES   REMARKS
DULUTH         PTCLDY    52  49  89 SE7       29.81R
ELY            CLEAR     70  50  49 W5        29.78R
HIBBING        PTCLDY    71  51  49 W7        29.77R
EVELETH        PTCLDY    68  55  64 SE3       29.79R
DULUTH HARBOR  FOG       46  45  93 N5        29.83R VSB 1/2
TWO HARBORS    CLOUDY    54  48  82 CALM      29.80R HAZE
SILVER BAY     CLOUDY    54  52  94 E3        29.79R VSB 1/4
GRAND MARAIS     N/A     48  46  93 CALM      29.82R
G MARAIS ARPRT CLEAR     59  54  82 S3        29.81R
$$
MNZ029>031-032-039>041-046>048-054>057-064-270200-
   West Central Minnesota

CITY           SKY/WX    TMP DP  RH WIND       PRES   REMARKS
FERGUS FALLS   CLEAR     73  50  43 W5        29.75R
WHEATON        CLEAR     77  52  41 S6        29.82R
MORRIS         CLOUDY    75  48  38 SW8       29.82R
ALEXANDRIA     CLOUDY    72  50  45 CALM      29.84R
ELBOW LAKE     MOCLDY    74  49  40 CALM      29.81R
WADENA         CLEAR     72  52  49 CALM      29.82R
GLENWOOD       CLOUDY    73  50  43 CALM      29.84R
APPLETON       PTCLDY    75  46  35 CALM      29.82R
ORTONVILLE     CLOUDY    75  46  35 CALM      29.82R
MADISON        CLOUDY    75  46  35 SW6       29.83R
WILLMAR        FAIR      79  48  34 W5        29.84R
$$
MNZ033>034-036-042>043-049>051-058-059-270200-
   Central Minnesota

CITY           SKY/WX    TMP DP  RH WIND       PRES   REMARKS
ST CLOUD       CLOUDY    76  48  37 W3        29.83R
SAUK CENTRE    MOCLDY    71  53  52 CALM      29.84R
PAYNESVILLE    CLOUDY    76  45  33 CALM      29.84R
AITKIN         CLEAR     73  45  35 SW3       29.81R
PINE RIVER     CLEAR     70  52  52 CALM      29.86R
BRAINERD       CLEAR     72  46  39 W6        29.83R
STAPLES        CLEAR     72  48  43 CALM      29.83R
LONG PRAIRIE   FAIR      73  48  40 CALM      29.83R
LITTLE FALLS   CLEAR     72  46  40 CALM      29.84R
LITCHFIELD     MIX PCPN  73  50  43 CALM      29.84R
BUFFALO        CLOUDY    76  50  40 SE3       29.85R
MAPLE LAKE     CLOUDY    76  55  47 CALM      29.84R
HUTCHINSON     PTCLDY    76  52  43 SE3       29.84R
$$
MNZ037-044-045-052-053-270200-
   East Central Minnesota

CITY           SKY/WX    TMP DP  RH WIND       PRES   REMARKS
PRINCETON      CLOUDY    75  52  43 CALM      29.84R
MORA           CLEAR     72  45  37 W6        29.84R
CAMBRIDGE        N/A     77  55  47 CALM      29.82R
RUSH CITY      CLOUDY    73  50  45 W3        29.83R
MOOSE LAKE     CLEAR     72  48  43 W6        29.80R
HINCKLEY       FAIR      70  54  56 W6        29.83R
CLOQUET        CLEAR     57  50  77 SE3       29.82R
MCGREGOR       CLEAR     72  46  40 W5        29.82R
$$
MNZ071>073-080-081-089-090-097-098-270200-
   Southwest Minnesota

CITY           SKY/WX    TMP DP  RH WIND       PRES   REMARKS
MONTEVIDEO     CLOUDY    75  46  35 CALM      29.84R
GRANITE FALLS  MOCLDY    78  51  38 SW3       29.83S
CANBY          CLOUDY    76  56  49 CALM      29.84S
MARSHALL       CLOUDY    75  51  43 S8        29.82S
REDWOOD FALLS  CLOUDY    77  49  37 SW8       29.81R
OLIVIA         CLOUDY    70  43  37 CALM      29.82S
PIPESTONE      CLOUDY    72  50  46 SE3       29.84F
WINDOM         CLOUDY    72  55  56 CALM      29.85S
WORTHINGTON    CLOUDY    69  62  78 SE8       29.86S
JACKSON        CLOUDY    70  55  60 CALM      29.86R
TRACY          CLOUDY    74  51  44 CALM      29.83F
SLAYTON        CLOUDY    72  51  47 SE7       29.85F
$$
MNZ065>067-074>077-082>085-091>093-270200-
   South Central Minnesota

CITY           SKY/WX    TMP DP  RH WIND       PRES   REMARKS
MANKATO        CLOUDY    75  48  38 S6        29.85R
NEW ULM        CLOUDY    72  57  60 S6        29.84S
ST JAMES       CLOUDY    68  57  68 CALM      29.85S
FAIRMONT       CLOUDY    73  45  35 SE5       29.85R
FARIBAULT      CLOUDY    72  61  68 CALM      29.85R
OWATONNA       CLOUDY    73  57  56 CALM      29.86
WASECA         CLOUDY    72  55  56 CALM      29.87R
ALBERT LEA     CLOUDY    72  59  64 CALM      29.84F
$$
MNZ078>079-086>088-094>096-270200-
   Southeast Minnesota

CITY           SKY/WX    TMP DP  RH WIND       PRES   REMARKS
ROCHESTER      CLOUDY    71  64  78 S5        29.87R
RED WING       CLOUDY    73  61  64 CALM      29.82S
STANTON        CLOUDY    75  53  45 W3        29.83S
DODGE CENTER   CLOUDY    72  55  56 SW3       29.86S
WINONA         CLOUDY    73  61  64 CALM      29.84R
AUSTIN         CLOUDY    73  54  49 CALM      29.86S
PRESTON        CLOUDY    73  55  54 W5        29.87S
$$
ABBREVIATIONS USED IN REMARKS
   TC - TEMPERATURES IN CELSIUS
  WCI - WIND CHILL INDEX
   HX - HEAT INDEX
  VSB - VISIBILITY
$$




USA.gov is the U.S. government's official web portal to all federal, state and local government web resources and services.